Time,TemperatureF,DewpointF,PressureIn,WindDirection,WindDirectionDegrees,WindSpeedMPH,WindSpeedGustMPH,Humidity,HourlyPrecipIn,Conditions,Clouds,dailyrainin,SoftwareType,DateUTC
2013-01-18 00:00:00,68.0,62.0,30.13,NNW,330,25.0,29.0,78,-99.99,,,-99.99,,2013-01-18 05:00:00,
2013-01-18 00:22:00,68.0,62.0,30.13,NNW,330,25.0,29.0,78,-99.99,,,-99.99,,2013-01-18 05:22:00,
2013-01-18 00:32:00,68.0,62.0,30.13,NNW,330,25.0,29.0,78,-99.99,,,-99.99,,2013-01-18 05:32:00,
2013-01-18 00:42:00,68.0,62.0,30.13,NNW,330,25.0,29.0,78,-99.99,,,-99.99,,2013-01-18 05:42:00,
2013-01-18 00:52:00,68.0,62.0,30.13,NNW,330,25.0,29.0,78,-99.99,,,-99.99,,2013-01-18 05:52:00,
2013-01-18 01:00:00,67.0,60.0,30.14,NNW,340,25.0,26.0,76,-99.99,,,-99.99,,2013-01-18 06:00:00,
2013-01-18 01:22:00,67.0,60.0,30.14,NNW,340,25.0,26.0,76,-99.99,,,-99.99,,2013-01-18 06:22:00,
2013-01-18 01:32:00,67.0,60.0,30.14,NNW,340,25.0,26.0,76,-99.99,,,-99.99,,2013-01-18 06:32:00,
2013-01-18 01:42:00,67.0,60.0,30.14,NNW,340,25.0,26.0,76,-99.99,,,-99.99,,2013-01-18 06:42:00,
2013-01-18 01:52:00,67.0,60.0,30.14,NNW,340,25.0,26.0,76,-99.99,,,-99.99,,2013-01-18 06:52:00,
2013-01-18 02:00:00,67.0,59.0,30.14,NNW,330,22.0,23.0,75,-99.99,,,-99.99,,2013-01-18 07:00:00,
2013-01-18 02:22:00,67.0,59.0,30.14,NNW,330,22.0,23.0,75,-99.99,,,-99.99,,2013-01-18 07:22:00,
2013-01-18 02:32:00,67.0,59.0,30.14,NNW,330,22.0,23.0,75,-99.99,,,-99.99,,2013-01-18 07:32:00,
2013-01-18 02:42:00,67.0,59.0,30.14,NNW,330,22.0,23.0,75,-99.99,,,-99.99,,2013-01-18 07:42:00,
2013-01-18 02:52:00,67.0,59.0,30.14,NNW,330,22.0,23.0,75,-99.99,,,-99.99,,2013-01-18 07:52:00,
2013-01-18 03:00:00,67.0,60.0,30.13,NNW,330,23.0,25.0,78,-99.99,,,-99.99,,2013-01-18 08:00:00,
2013-01-18 03:22:00,67.0,60.0,30.13,NNW,330,23.0,25.0,78,-99.99,,,-99.99,,2013-01-18 08:22:00,
2013-01-18 03:32:00,67.0,60.0,30.13,NNW,330,23.0,25.0,78,-99.99,,,-99.99,,2013-01-18 08:32:00,
2013-01-18 03:42:00,67.0,60.0,30.13,NNW,330,23.0,25.0,78,-99.99,,,-99.99,,2013-01-18 08:42:00,
2013-01-18 03:52:00,67.0,60.0,30.13,NNW,330,23.0,25.0,78,-99.99,,,-99.99,,2013-01-18 08:52:00,
2013-01-18 04:00:00,67.0,60.0,30.13,North,350,22.0,23.0,77,-99.99,,,-99.99,,2013-01-18 09:00:00,
2013-01-18 04:22:00,67.0,60.0,30.13,North,350,22.0,23.0,77,-99.99,,,-99.99,,2013-01-18 09:22:00,
2013-01-18 04:32:00,67.0,60.0,30.13,North,350,22.0,23.0,77,-99.99,,,-99.99,,2013-01-18 09:32:00,
2013-01-18 04:42:00,67.0,60.0,30.13,North,350,22.0,23.0,77,-99.99,,,-99.99,,2013-01-18 09:42:00,
2013-01-18 04:52:00,67.0,60.0,30.13,North,350,22.0,23.0,77,-99.99,,,-99.99,,2013-01-18 09:52:00,
2013-01-18 05:00:00,67.0,60.0,30.14,NNW,340,22.0,25.0,78,-99.99,,,-99.99,,2013-01-18 10:00:00,
2013-01-18 05:22:00,67.0,60.0,30.14,NNW,340,22.0,25.0,78,-99.99,,,-99.99,,2013-01-18 10:22:00,
2013-01-18 05:32:00,67.0,60.0,30.14,NNW,340,22.0,25.0,78,-99.99,,,-99.99,,2013-01-18 10:32:00,
2013-01-18 05:42:00,67.0,60.0,30.14,NNW,340,22.0,25.0,78,-99.99,,,-99.99,,2013-01-18 10:42:00,
2013-01-18 05:52:00,67.0,60.0,30.14,NNW,340,22.0,25.0,78,-99.99,,,-99.99,,2013-01-18 10:52:00,
2013-01-18 06:00:00,67.0,60.0,30.15,NNW,340,23.0,25.0,78,-99.99,,,-99.99,,2013-01-18 11:00:00,
2013-01-18 06:22:00,67.0,60.0,30.15,NNW,340,23.0,25.0,78,-99.99,,,-99.99,,2013-01-18 11:22:00,
2013-01-18 06:32:00,67.0,60.0,30.15,NNW,340,23.0,25.0,78,-99.99,,,-99.99,,2013-01-18 11:32:00,
2013-01-18 06:42:00,67.0,60.0,30.15,NNW,340,23.0,25.0,78,-99.99,,,-99.99,,2013-01-18 11:42:00,
2013-01-18 06:52:00,67.0,60.0,30.15,NNW,340,23.0,25.0,78,-99.99,,,-99.99,,2013-01-18 11:52:00,
2013-01-18 07:00:00,66.0,59.0,30.17,North,350,20.0,22.0,76,-99.99,,,-99.99,,2013-01-18 12:00:00,
2013-01-18 07:22:00,66.0,59.0,30.17,North,350,20.0,22.0,76,-99.99,,,-99.99,,2013-01-18 12:22:00,
2013-01-18 07:32:00,66.0,59.0,30.17,North,350,20.0,22.0,76,-99.99,,,-99.99,,2013-01-18 12:32:00,
2013-01-18 07:42:00,66.0,59.0,30.17,North,350,20.0,22.0,76,-99.99,,,-99.99,,2013-01-18 12:42:00,
2013-01-18 07:52:00,66.0,59.0,30.17,North,350,20.0,22.0,76,-99.99,,,-99.99,,2013-01-18 12:52:00,
2013-01-18 08:00:00,65.0,59.0,30.19,North,10,9.0,10.0,80,-99.99,,,-99.99,,2013-01-18 13:00:00,
2013-01-18 08:22:00,65.0,59.0,30.19,North,10,9.0,10.0,80,-99.99,,,-99.99,,2013-01-18 13:22:00,
2013-01-18 08:32:00,65.0,59.0,30.19,North,10,9.0,10.0,80,-99.99,,,-99.99,,2013-01-18 13:32:00,
2013-01-18 08:42:00,65.0,59.0,30.19,North,10,9.0,10.0,80,-99.99,,,-99.99,,2013-01-18 13:42:00,
2013-01-18 08:52:00,65.0,59.0,30.19,North,10,9.0,10.0,80,-99.99,,,-99.99,,2013-01-18 13:52:00,
2013-01-18 09:00:00,63.0,58.0,30.22,NNE,30,14.0,16.0,82,-99.99,,,-99.99,,2013-01-18 14:00:00,
2013-01-18 09:22:00,63.0,58.0,30.22,NNE,30,14.0,16.0,82,-99.99,,,-99.99,,2013-01-18 14:22:00,
2013-01-18 09:33:00,63.0,58.0,30.22,NNE,30,14.0,16.0,82,-99.99,,,-99.99,,2013-01-18 14:33:00,
2013-01-18 09:42:00,63.0,58.0,30.22,NNE,30,14.0,16.0,82,-99.99,,,-99.99,,2013-01-18 14:42:00,
2013-01-18 09:52:00,63.0,58.0,30.22,NNE,30,14.0,16.0,82,-99.99,,,-99.99,,2013-01-18 14:52:00,
2013-01-18 10:00:00,62.0,57.0,30.24,NE,40,15.0,18.0,82,-99.99,,,-99.99,,2013-01-18 15:00:00,
2013-01-18 10:22:00,62.0,57.0,30.24,NE,40,15.0,18.0,82,-99.99,,,-99.99,,2013-01-18 15:22:00,
2013-01-18 10:32:00,62.0,57.0,30.24,NE,40,15.0,18.0,82,-99.99,,,-99.99,,2013-01-18 15:32:00,
2013-01-18 10:42:00,62.0,57.0,30.24,NE,40,15.0,18.0,82,-99.99,,,-99.99,,2013-01-18 15:42:00,
2013-01-18 10:52:00,62.0,57.0,30.24,NE,40,15.0,18.0,82,-99.99,,,-99.99,,2013-01-18 15:52:00,
2013-01-18 11:00:00,61.0,55.0,30.23,NE,40,15.0,18.0,81,-99.99,,,-99.99,,2013-01-18 16:00:00,
2013-01-18 11:22:00,61.0,55.0,30.23,NE,40,15.0,18.0,81,-99.99,,,-99.99,,2013-01-18 16:22:00,
2013-01-18 11:32:00,61.0,55.0,30.23,NE,40,15.0,18.0,81,-99.99,,,-99.99,,2013-01-18 16:32:00,
2013-01-18 11:42:00,61.0,55.0,30.23,NE,40,15.0,18.0,81,-99.99,,,-99.99,,2013-01-18 16:42:00,
2013-01-18 11:52:00,61.0,55.0,30.23,NE,40,15.0,18.0,81,-99.99,,,-99.99,,2013-01-18 16:52:00,
2013-01-18 12:00:00,60.0,55.0,30.22,NE,50,16.0,18.0,82,-99.99,,,-99.99,,2013-01-18 17:00:00,
2013-01-18 12:22:00,60.0,55.0,30.22,NE,50,16.0,18.0,82,-99.99,,,-99.99,,2013-01-18 17:22:00,
2013-01-18 12:33:00,60.0,55.0,30.22,NE,50,16.0,18.0,82,-99.99,,,-99.99,,2013-01-18 17:33:00,
2013-01-18 12:42:00,60.0,55.0,30.22,NE,50,16.0,18.0,82,-99.99,,,-99.99,,2013-01-18 17:42:00,
2013-01-18 12:52:00,60.0,55.0,30.22,NE,50,16.0,18.0,82,-99.99,,,-99.99,,2013-01-18 17:52:00,
2013-01-18 13:00:00,60.0,55.0,30.19,NNE,20,15.0,17.0,82,-99.99,,,-99.99,,2013-01-18 18:00:00,
2013-01-18 13:22:00,60.0,55.0,30.19,NNE,20,15.0,17.0,82,-99.99,,,-99.99,,2013-01-18 18:22:00,
2013-01-18 13:32:00,60.0,55.0,30.19,NNE,20,15.0,17.0,82,-99.99,,,-99.99,,2013-01-18 18:32:00,
2013-01-18 13:42:00,60.0,55.0,30.19,NNE,20,15.0,17.0,82,-99.99,,,-99.99,,2013-01-18 18:42:00,
2013-01-18 13:52:00,60.0,55.0,30.19,NNE,20,15.0,17.0,82,-99.99,,,-99.99,,2013-01-18 18:52:00,
2013-01-18 14:00:00,60.0,54.0,30.17,NNE,20,11.0,15.0,81,-99.99,,,-99.99,,2013-01-18 19:00:00,
2013-01-18 14:22:00,60.0,54.0,30.17,NNE,20,11.0,15.0,81,-99.99,,,-99.99,,2013-01-18 19:22:00,
2013-01-18 14:32:00,60.0,54.0,30.17,NNE,20,11.0,15.0,81,-99.99,,,-99.99,,2013-01-18 19:32:00,
2013-01-18 14:42:00,60.0,54.0,30.17,NNE,20,11.0,15.0,81,-99.99,,,-99.99,,2013-01-18 19:42:00,
2013-01-18 14:52:00,60.0,54.0,30.17,NNE,20,11.0,15.0,81,-99.99,,,-99.99,,2013-01-18 19:52:00,
2013-01-18 15:00:00,61.0,54.0,30.17,North,10,11.0,14.0,77,-99.99,,,-99.99,,2013-01-18 20:00:00,
2013-01-18 15:22:00,61.0,54.0,30.17,North,10,11.0,14.0,77,-99.99,,,-99.99,,2013-01-18 20:22:00,
2013-01-18 15:32:00,61.0,54.0,30.17,North,10,11.0,14.0,77,-99.99,,,-99.99,,2013-01-18 20:32:00,
2013-01-18 15:42:00,61.0,54.0,30.17,North,10,11.0,14.0,77,-99.99,,,-99.99,,2013-01-18 20:42:00,
2013-01-18 15:52:00,61.0,54.0,30.17,North,10,11.0,14.0,77,-99.99,,,-99.99,,2013-01-18 20:52:00,
2013-01-18 16:00:00,61.0,54.0,30.18,NNE,20,10.0,11.0,76,-99.99,,,-99.99,,2013-01-18 21:00:00,
2013-01-18 16:22:00,61.0,54.0,30.18,NNE,20,10.0,11.0,76,-99.99,,,-99.99,,2013-01-18 21:22:00,
2013-01-18 16:32:00,61.0,54.0,30.18,NNE,20,10.0,11.0,76,-99.99,,,-99.99,,2013-01-18 21:32:00,
2013-01-18 16:42:00,61.0,54.0,30.18,NNE,20,10.0,11.0,76,-99.99,,,-99.99,,2013-01-18 21:42:00,
2013-01-18 16:52:00,61.0,54.0,30.18,NNE,20,10.0,11.0,76,-99.99,,,-99.99,,2013-01-18 21:52:00,
2013-01-18 17:00:00,62.0,52.0,30.19,North,360,13.0,14.0,70,-99.99,,,-99.99,,2013-01-18 22:00:00,
2013-01-18 17:22:00,62.0,52.0,30.19,North,360,13.0,14.0,70,-99.99,,,-99.99,,2013-01-18 22:22:00,
2013-01-18 17:32:00,62.0,52.0,30.19,North,360,13.0,14.0,70,-99.99,,,-99.99,,2013-01-18 22:32:00,
2013-01-18 17:42:00,62.0,52.0,30.19,North,360,13.0,14.0,70,-99.99,,,-99.99,,2013-01-18 22:42:00,
2013-01-18 17:52:00,62.0,52.0,30.19,North,360,13.0,14.0,70,-99.99,,,-99.99,,2013-01-18 22:52:00,
2013-01-18 18:00:00,62.0,54.0,30.20,North,350,11.0,13.0,75,-99.99,,,-99.99,,2013-01-18 23:00:00,
2013-01-18 18:22:00,62.0,54.0,30.20,North,350,11.0,13.0,75,-99.99,,,-99.99,,2013-01-18 23:22:00,
2013-01-18 18:32:00,62.0,54.0,30.20,North,350,11.0,13.0,75,-99.99,,,-99.99,,2013-01-18 23:32:00,
2013-01-18 18:42:00,62.0,54.0,30.20,North,350,11.0,13.0,75,-99.99,,,-99.99,,2013-01-18 23:42:00,
2013-01-18 18:52:00,62.0,54.0,30.20,North,350,11.0,13.0,75,-99.99,,,-99.99,,2013-01-18 23:52:00,
2013-01-18 19:00:00,62.0,55.0,30.20,NNE,30,3.0,5.0,76,-99.99,,,-99.99,,2013-01-19 00:00:00,
2013-01-18 19:22:00,62.0,55.0,30.20,NNE,30,3.0,5.0,76,-99.99,,,-99.99,,2013-01-19 00:22:00,
2013-01-18 19:32:00,62.0,55.0,30.20,NNE,30,3.0,5.0,76,-99.99,,,-99.99,,2013-01-19 00:32:00,
2013-01-18 19:42:00,62.0,55.0,30.20,NNE,30,3.0,5.0,76,-99.99,,,-99.99,,2013-01-19 00:42:00,
2013-01-18 19:52:00,62.0,55.0,30.20,NNE,30,3.0,5.0,76,-99.99,,,-99.99,,2013-01-19 00:52:00,
2013-01-18 20:00:00,63.0,52.0,30.21,NE,50,7.0,8.0,66,-99.99,,,-99.99,,2013-01-19 01:00:00,
2013-01-18 20:22:00,63.0,52.0,30.21,NE,50,7.0,8.0,66,-99.99,,,-99.99,,2013-01-19 01:22:00,
2013-01-18 20:32:00,63.0,52.0,30.21,NE,50,7.0,8.0,66,-99.99,,,-99.99,,2013-01-19 01:32:00,
2013-01-18 20:42:00,63.0,52.0,30.21,NE,50,7.0,8.0,66,-99.99,,,-99.99,,2013-01-19 01:42:00,
2013-01-18 20:52:00,63.0,52.0,30.21,NE,50,7.0,8.0,66,-99.99,,,-99.99,,2013-01-19 01:52:00,
2013-01-18 21:00:00,63.0,51.0,30.21,East,80,8.0,9.0,64,-99.99,,,-99.99,,2013-01-19 02:00:00,
2013-01-18 21:22:00,63.0,51.0,30.21,East,80,8.0,9.0,64,-99.99,,,-99.99,,2013-01-19 02:22:00,
2013-01-18 21:32:00,63.0,51.0,30.21,East,80,8.0,9.0,64,-99.99,,,-99.99,,2013-01-19 02:32:00,
2013-01-18 21:42:00,63.0,51.0,30.21,East,80,8.0,9.0,64,-99.99,,,-99.99,,2013-01-19 02:42:00,
2013-01-18 21:52:00,63.0,51.0,30.21,East,80,8.0,9.0,64,-99.99,,,-99.99,,2013-01-19 02:52:00,
2013-01-18 22:00:00,64.0,53.0,30.21,ENE,70,8.0,9.0,66,-99.99,,,-99.99,,2013-01-19 03:00:00,
2013-01-18 22:22:00,64.0,53.0,30.21,ENE,70,8.0,9.0,66,-99.99,,,-99.99,,2013-01-19 03:22:00,
2013-01-18 22:32:00,64.0,53.0,30.21,ENE,70,8.0,9.0,66,-99.99,,,-99.99,,2013-01-19 03:32:00,
2013-01-18 22:42:00,64.0,53.0,30.21,ENE,70,8.0,9.0,66,-99.99,,,-99.99,,2013-01-19 03:42:00,
2013-01-18 22:52:00,64.0,53.0,30.21,ENE,70,8.0,9.0,66,-99.99,,,-99.99,,2013-01-19 03:52:00,
2013-01-18 23:00:00,65.0,52.0,30.21,ESE,120,6.0,8.0,64,-99.99,,,-99.99,,2013-01-19 04:00:00,
2013-01-18 23:22:00,65.0,52.0,30.21,ESE,120,6.0,8.0,64,-99.99,,,-99.99,,2013-01-19 04:22:00,
2013-01-18 23:32:00,65.0,52.0,30.21,ESE,120,6.0,8.0,64,-99.99,,,-99.99,,2013-01-19 04:32:00,
2013-01-18 23:42:00,65.0,52.0,30.21,ESE,120,6.0,8.0,64,-99.99,,,-99.99,,2013-01-19 04:42:00,
2013-01-18 23:52:00,65.0,52.0,30.21,ESE,120,6.0,8.0,64,-99.99,,,-99.99,,2013-01-19 04:52:00,